Location: Bogis-Bossey
(46.3500°N, 6.1667°E)
Time: 17:12:26
(UTC+00:00)

Cosmos 2123 Rocket - Pass Details

Date: 17 August 2022
Orbit: 960 x 992 km, 82.9° (Epoch: 30 September)

Event Time Altitude Azimuth Distance (km) Brightness Sun altitude
Exits shadow 19:49:20 - 169° (S) 3,567 6.5 -11.3°
Reaches altitude 10° 19:51:35 10° 165° (SSE) 2,740 5.9 -11.6°
Maximum altitude 19:57:38 52° 91° (E) 1,210 4.2 -12.5°
Drops below altitude 10° 20:03:41 10° 17° (NNE) 2,738 6.6 -13.3°
Sets 20:06:15 0° 13° (NNE) 3,686 7.3 -13.7°
